User: anonymous   Login
Location: Unspecified
(51.6250°N, 0.8230°E)
Time: 22:32:27
(UTC+00:00)
Language:

Intercosmos 25 - Orbit

View from above orbital plane
View from above orbital plane
View from above satellite
View from above satellite

Ground track
Ground track

The orbit data is extracted from the following two-line orbital elements,

1 21819U 91086A   21056.20795968  .00000481  00000-0  88836-4 0  9995
2 21819  82.5812 334.8904 1517579  93.3902 284.1283 12.05145680274734
Epoch (UTC): 25 February 2021 04:59:27
Eccentricity: 0.1517579
inclination: 82.5812°
perigee height: 438 km
apogee height: 2877 km
right ascension of ascending node: 334.8904°
argument of perigee: 93.3902°
revolutions per day: 12.05145680
mean anomaly at epoch: 284.1283°
orbit number at epoch: 27473

The dashed part of the orbit path shows where the satellite is in the earth's shadow,  

DLR